Simultaneous Nadir Overpasses (SNOs) Predictions

Prediction of SNOs between GOES-14 and NPP Satellite Orbit:

Table of predicted SNOs for the next 14.0 days since TLE Epoch: 11/4/2023
Index Date Time (GOES-14) GOES-14 Lat,Lon NPP Lat,Lon Distance(km) Time Diff (sec)
1 11/05/2023 08:56:05 0.07,-108.62 0.99,-112.80 475.72 80
2 11/06/2023 08:40:01 0.08,-108.62 -0.03,-108.27 40.89 80
3 11/08/2023 20:40:33 -0.07,-108.57 -0.16,-109.04 53.53 80
4 11/09/2023 20:24:27 -0.08,-108.57 0.80,-104.50 463.27 80
5 11/11/2023 08:43:37 0.05,-108.63 0.29,-109.79 132.43 80
6 11/12/2023 08:27:31 0.07,-108.63 -0.67,-105.25 384.23 80
7 11/13/2023 20:46:47 -0.04,-108.57 -0.51,-110.56 227.15 80
8 11/14/2023 20:30:43 -0.06,-108.57 0.52,-106.03 289.20 80
9 11/16/2023 08:49:51 0.03,-108.61 0.62,-111.31 307.31 80
10 11/17/2023 08:33:46 0.04,-108.61 -0.36,-106.77 208.68 80
